Temp
74 74 74 74 73 73 73 72 72 72 72 73 73 73 73 74 75 75 76 76 76 76 76 76 76 76 76 76 76 75 74 74 74 74 73 72 70 71 72 72 72 72
74 74 74 74 74 74 73 72 72 71 72 72 73 73 74 74 75 75 75 76 76 76 76 76 76 76 76 76 75 74 74 74 74 77 74 73 71 73 73 73 73 73
74 73 74 73 73 73 73 73 72 72 73 73 74 74 74 75 74 75 75 75 75 76 76 76 76 76 75 75 75 75 74 74 74 76 75 74 74 73 73 74 73 73
74 73 73 73 73 73 73 72 72 72 73 73 73 74 74 74 74 74 74 74 75 75 75 75 75 76 75 75 75 74 74 74 75 75 74 74 74 74 73 74 73 72
73 73 73 74 74 73 73 72 73 73 74 74 74 74 73 73 73 74 74 75 74 75 75 75 76 76 75 75 75 73 74 74 75 74 73 73 74 74 74 74 74 73
74 74 73 73 73 73 72 73 73 73 74 74 74 74 74 74 73 74 75 75 76 76 75 76 76 76 76 75 74 73 73 73 74 74 73 73 74 75 75 75 74 73
74 73 73 73 73 73 72 73 73 73 73 74 73 73 74 74 73 74 74 75 75 74 74 74 74 74 75 74 73 73 73 72 72 73 72 72 72 73 74 74 73 73
74 74 74 73 72 73 72 73 73 73 74 73 73 73 73 74 73 74 74 74 74 74 74 74 74 74 75 74 73 72 72 73 72 71 71 72 72 71 72 73 72 71
74 74 74 73 73 74 75 75 76 75 74 73 73 74 74 73 73 74 73 73 73 73 73 74 73 73 74 73 73 72 71 71 71 71 70 69 70 71 72 72 72 71
74 74 73 74 75 75 75 76 77 76 75 73 73 73 73 74 74 73 73 73 73 73 73 73 73 73 73 73 72 72 71 71 71 70 69 68 68 69 69 70 72 71
74 74 74 74 75 76 76 78 78 78 77 74 74 74 74 74 74 74 73 73 73 73 72 71 72 73 73 72 72 72 71 71 70 70 69 68 67 67 67 69 69 70
74 74 74 74 75 75 75 75 75 74 75 76 75 75 75 75 74 74 73 73 73 73 72 71 72 72 72 71 70 70 70 71 71 70 70 68 68 68 69 70 69 69
74 74 74 75 74 74 74 75 76 76 77 76 76 75 75 75 75 74 74 73 73 73 73 72 72 72 71 70 68 69 69 69 70 70 69 69 69 69 69 70 71 71
74 74 74 73 73 73 73 74 74 74 74 74 74 74 76 75 76 74 75 74 74 73 73 73 72 72 71 69 68 68 68 67 67 66 66 68 68 68 68 68 69 71
74 74 73 73 72 72 73 73 74 74 74 74 73 74 74 76 75 75 73 73 74 73 73 73 72 72 71 68 67 67 67 67 67 66 67 67 67 68 68 68 69 70
73 73 72 72 72 73 73 74 74 74 74 73 73 74 74 74 73 73 74 73 73 73 73 73 72 72 67 60 61 66 67 68 67 67 67 66 66 65 67 67 68 70
72 73 73 72 73 73 74 74 73 73 73 73 73 73 73 73 73 73 74 74 73 73 73 73 72 72 63 60 62 62 66 68 67 66 66 65 65 64 64 64 66 68
73 73 72 73 73 73 74 74 73 72 72 72 73 73 73 73 73 73 73 73 73 73 73 73 73 67 61 60 61 61 62 65 66 66 67 65 64 63 62 62 62 64
73 72 73 73 73 74 73 73 72 72 72 73 73 73 73 72 73 73 73 73 73 72 72 73 74 66 61 59 60 59 60 62 66 67 66 64 64 63 63 61 61 62
72 72 72 73 73 73 72 72 72 72 72 73 73 73 73 73 73 73 73 73 73 72 72 73 73 66 60 58 57 56 58 61 68 67 65 64 63 63 62 61 60 60
73 72 72 73 73 72 72 72 72 72 73 74 74 73 73 72 72 72 72 73 74 74 73 73 74 63 59 57 55 54 54 60 68 66 63 62 62 62 61 61 60 60
73 73 73 73 73 72 72 72 73 73 73 73 72 73 74 73 73 73 73 73 74 74 73 73 75 63 58 57 54 54 54 66 67 64 62 61 61 61 61 61 61 61
74 73 73 73 73 72 73 73 73 73 73 73 72 73 73 73 74 74 74 74 74 74 73 72 74 66 58 55 54 53 57 67 66 63 61 61 60 61 62 62 62 62
74 74 73 73 73 73 74 74 75 74 73 73 72 72 73 74 74 74 74 74 74 73 75 73 74 67 57 53 53 55 55 63 65 62 61 60 61 62 61 61 61 62
75 74 73 74 74 74 75 74 73 73 74 73 73 73 73 73 73 73 73 74 77 75 69 70 74 70 58 54 54 54 58 65 64 63 60 60 61 61 62 61 61 61
74 73 73 73 74 74 74 73 74 74 75 74 74 75 74 74 73 73 73 75 77 75 75 73 72 73 70 57 54 54 54 60 63 62 61 61 61 61 61 61 61 61
MSLP
1017.40 1017.40 1017.40 1017.36 1017.28 1017.20 1017.24 1017.24 1017.08 1017.00 1016.88 1016.68 1016.60 1016.28 1016.08 1015.76 1015.56 1015.40 1015.20 1015.08 1015.00 1014.92 1014.76 1014.68 1014.60 1014.56 1014.48 1014.44 1014.44 1014.44 1014.48 1014.48 1014.40 1014.32 1014.52 1014.72 1014.92 1014.76 1014.72 1014.72 1014.68 1014.56
1017.28 1017.28 1017.24 1017.16 1017.08 1017.00 1017.04 1017.04 1017.04 1016.96 1016.80 1016.64 1016.44 1016.24 1015.92 1015.72 1015.44 1015.28 1015.12 1015.00 1014.84 1014.80 1014.68 1014.60 1014.56 1014.48 1014.44 1014.40 1014.36 1014.40 1014.32 1014.20 1014.20 1013.92 1014.08 1014.24 1014.36 1014.24 1014.12 1013.96 1014.00 1013.96
1017.16 1017.20 1017.16 1017.16 1017.04 1016.96 1016.92 1016.84 1016.84 1016.72 1016.60 1016.40 1016.24 1016.08 1015.88 1015.56 1015.40 1015.16 1015.04 1014.92 1014.84 1014.76 1014.68 1014.60 1014.52 1014.40 1014.36 1014.32 1014.28 1014.28 1014.24 1014.12 1014.00 1013.64 1013.68 1013.76 1013.64 1013.68 1013.48 1013.36 1013.48 1013.52
1017.08 1017.12 1017.12 1017.04 1016.92 1016.88 1016.76 1016.76 1016.68 1016.56 1016.36 1016.28 1016.12 1015.88 1015.76 1015.56 1015.36 1015.16 1015.00 1014.88 1014.80 1014.72 1014.60 1014.48 1014.44 1014.32 1014.24 1014.16 1014.12 1014.12 1014.00 1013.88 1013.68 1013.52 1013.52 1013.40 1013.28 1013.24 1013.12 1012.96 1013.00 1013.08
1017.04 1017.00 1016.92 1016.88 1016.76 1016.72 1016.72 1016.72 1016.60 1016.36 1016.24 1016.04 1015.84 1015.68 1015.60 1015.48 1015.32 1015.16 1014.96 1014.80 1014.72 1014.64 1014.44 1014.36 1014.24 1014.16 1014.08 1014.00 1013.96 1013.96 1013.80 1013.68 1013.40 1013.28 1013.28 1013.24 1013.00 1012.92 1012.72 1012.68 1012.64 1012.64
1016.84 1016.80 1016.76 1016.76 1016.68 1016.68 1016.64 1016.56 1016.36 1016.24 1016.08 1015.92 1015.76 1015.56 1015.44 1015.28 1015.24 1015.04 1014.84 1014.76 1014.56 1014.40 1014.36 1014.16 1014.12 1013.96 1013.88 1013.80 1013.76 1013.72 1013.64 1013.56 1013.32 1013.20 1013.12 1012.96 1012.68 1012.44 1012.32 1012.20 1012.16 1012.16
1016.72 1016.68 1016.68 1016.56 1016.56 1016.48 1016.48 1016.28 1016.16 1016.08 1015.92 1015.76 1015.64 1015.56 1015.36 1015.28 1015.12 1014.96 1014.76 1014.60 1014.52 1014.40 1014.28 1014.16 1014.08 1013.96 1013.76 1013.68 1013.64 1013.60 1013.40 1013.32 1013.20 1013.08 1013.00 1012.72 1012.48 1012.24 1012.00 1011.88 1011.76 1011.68
1016.56 1016.48 1016.44 1016.40 1016.44 1016.28 1016.20 1016.08 1015.96 1015.88 1015.76 1015.68 1015.64 1015.36 1015.24 1015.16 1015.00 1014.80 1014.60 1014.52 1014.44 1014.32 1014.20 1014.04 1013.92 1013.84 1013.68 1013.60 1013.60 1013.52 1013.40 1013.16 1013.08 1012.96 1012.76 1012.52 1012.32 1012.12 1011.84 1011.64 1011.52 1011.40
1016.44 1016.40 1016.28 1016.28 1016.24 1016.04 1015.92 1015.80 1015.68 1015.64 1015.56 1015.60 1015.48 1015.24 1015.00 1014.92 1014.76 1014.60 1014.52 1014.40 1014.32 1014.20 1014.08 1013.96 1013.80 1013.72 1013.64 1013.60 1013.52 1013.44 1013.36 1013.24 1013.08 1012.92 1012.80 1012.56 1012.24 1011.80 1011.44 1011.12 1011.00 1010.84
1016.36 1016.24 1016.24 1016.12 1016.00 1015.84 1015.80 1015.56 1015.44 1015.44 1015.40 1015.44 1015.32 1015.12 1014.96 1014.68 1014.52 1014.40 1014.28 1014.20 1014.16 1014.00 1013.92 1013.84 1013.72 1013.60 1013.52 1013.48 1013.40 1013.28 1013.16 1013.04 1012.88 1012.76 1012.60 1012.40 1012.12 1011.64 1011.28 1010.92 1010.44 1010.32
1016.24 1016.12 1016.12 1015.96 1015.84 1015.64 1015.56 1015.36 1015.28 1015.24 1015.16 1015.24 1015.08 1014.96 1014.72 1014.52 1014.36 1014.16 1014.08 1013.96 1013.92 1013.84 1013.80 1013.80 1013.68 1013.48 1013.44 1013.36 1013.24 1013.04 1012.96 1012.84 1012.72 1012.56 1012.32 1012.00 1011.68 1011.32 1010.88 1010.48 1010.20 1009.88
1016.04 1016.04 1015.96 1015.80 1015.68 1015.56 1015.48 1015.36 1015.32 1015.24 1015.12 1014.88 1014.80 1014.72 1014.48 1014.28 1014.20 1014.00 1013.84 1013.76 1013.64 1013.56 1013.56 1013.52 1013.36 1013.28 1013.28 1013.24 1013.12 1012.92 1012.72 1012.60 1012.44 1012.24 1011.96 1011.68 1011.24 1010.76 1010.24 1009.84 1009.52 1009.24
1015.84 1015.80 1015.72 1015.60 1015.52 1015.44 1015.32 1015.20 1015.08 1014.92 1014.80 1014.72 1014.52 1014.44 1014.28 1014.08 1013.84 1013.76 1013.56 1013.48 1013.36 1013.32 1013.32 1013.20 1013.12 1013.04 1013.08 1013.04 1013.00 1012.80 1012.64 1012.48 1012.28 1012.04 1011.72 1011.28 1010.72 1010.32 1009.92 1009.40 1008.96 1008.56
1015.60 1015.52 1015.52 1015.48 1015.36 1015.28 1015.16 1015.04 1014.92 1014.80 1014.68 1014.52 1014.36 1014.28 1014.00 1013.84 1013.68 1013.48 1013.28 1013.16 1013.08 1013.04 1013.00 1012.96 1012.96 1012.84 1012.84 1012.88 1012.84 1012.68 1012.56 1012.36 1012.20 1011.92 1011.52 1010.96 1010.36 1009.88 1009.52 1009.16 1008.64 1008.08
1015.36 1015.32 1015.28 1015.24 1015.16 1015.08 1015.00 1014.84 1014.72 1014.56 1014.44 1014.28 1014.16 1014.00 1013.80 1013.60 1013.36 1013.28 1013.20 1013.04 1012.84 1012.72 1012.64 1012.64 1012.68 1012.64 1012.64 1012.72 1012.72 1012.60 1012.40 1012.24 1011.96 1011.60 1011.20 1010.68 1010.12 1009.52 1009.04 1008.64 1008.20 1007.72
1015.24 1015.24 1015.16 1015.04 1015.00 1014.88 1014.72 1014.60 1014.48 1014.36 1014.20 1014.08 1013.96 1013.76 1013.60 1013.48 1013.32 1013.16 1013.00 1012.84 1012.72 1012.52 1012.40 1012.36 1012.36 1012.32 1012.40 1012.48 1012.56 1012.56 1012.28 1012.04 1011.72 1011.36 1010.92 1010.48 1010.08 1009.48 1008.84 1008.32 1007.80 1007.16
1015.16 1015.08 1014.96 1014.96 1014.76 1014.64 1014.48 1014.40 1014.32 1014.16 1014.08 1013.92 1013.80 1013.64 1013.52 1013.32 1013.20 1013.04 1012.84 1012.64 1012.56 1012.40 1012.28 1012.12 1012.08 1012.08 1012.20 1012.24 1012.24 1012.28 1012.20 1011.96 1011.76 1011.36 1010.84 1010.40 1010.00 1009.52 1008.96 1008.44 1007.80 1006.88
1014.92 1014.88 1014.88 1014.72 1014.56 1014.48 1014.32 1014.20 1014.12 1014.04 1013.92 1013.76 1013.60 1013.44 1013.24 1013.12 1013.04 1012.84 1012.64 1012.52 1012.36 1012.24 1012.08 1011.92 1011.76 1011.80 1011.96 1012.00 1012.00 1012.00 1012.04 1011.96 1011.64 1011.28 1010.76 1010.40 1010.04 1009.60 1009.12 1008.56 1007.96 1007.04
1014.76 1014.76 1014.68 1014.56 1014.40 1014.28 1014.20 1014.12 1014.04 1013.92 1013.76 1013.60 1013.44 1013.20 1013.08 1013.04 1012.80 1012.64 1012.48 1012.28 1012.20 1012.12 1011.96 1011.68 1011.52 1011.52 1011.68 1011.72 1011.76 1011.80 1011.80 1011.80 1011.40 1011.08 1010.76 1010.44 1010.00 1009.56 1009.12 1008.64 1008.00 1007.32
1014.60 1014.60 1014.56 1014.40 1014.24 1014.20 1014.12 1014.04 1013.92 1013.80 1013.56 1013.32 1013.20 1013.04 1012.96 1012.80 1012.56 1012.52 1012.32 1012.16 1012.00 1011.92 1011.72 1011.48 1011.32 1011.24 1011.44 1011.48 1011.52 1011.56 1011.56 1011.52 1011.08 1010.92 1010.72 1010.40 1010.00 1009.60 1009.20 1008.76 1008.24 1007.68
1014.40 1014.40 1014.36 1014.20 1014.12 1014.08 1014.00 1013.88 1013.76 1013.56 1013.40 1013.16 1013.04 1012.96 1012.84 1012.72 1012.60 1012.48 1012.20 1012.00 1011.76 1011.60 1011.48 1011.36 1011.04 1011.08 1011.20 1011.28 1011.36 1011.44 1011.44 1011.32 1010.88 1010.80 1010.64 1010.32 1009.96 1009.60 1009.24 1008.80 1008.32 1007.88
1014.08 1014.12 1014.08 1014.00 1013.96 1013.88 1013.84 1013.68 1013.48 1013.36 1013.28 1013.08 1013.04 1012.80 1012.56 1012.40 1012.24 1012.08 1012.00 1011.80 1011.56 1011.40 1011.36 1011.20 1010.76 1010.88 1011.00 1011.12 1011.16 1011.16 1011.20 1010.88 1010.68 1010.72 1010.52 1010.24 1009.88 1009.48 1009.12 1008.84 1008.56 1008.24
1013.72 1013.80 1013.84 1013.80 1013.76 1013.72 1013.60 1013.40 1013.32 1013.16 1013.00 1012.92 1012.96 1012.72 1012.56 1012.32 1012.08 1011.84 1011.64 1011.52 1011.40 1011.24 1011.20 1011.00 1010.68 1010.60 1010.76 1010.88 1010.96 1010.96 1010.92 1010.64 1010.52 1010.48 1010.36 1010.08 1009.80 1009.36 1009.00 1008.64 1008.32 1007.92
1013.40 1013.52 1013.60 1013.56 1013.52 1013.48 1013.32 1013.16 1013.00 1012.92 1012.88 1012.76 1012.88 1012.76 1012.52 1012.16 1011.88 1011.76 1011.48 1011.24 1011.16 1011.08 1010.88 1010.92 1010.56 1010.32 1010.48 1010.56 1010.64 1010.64 1010.72 1010.60 1010.32 1010.28 1010.12 1009.92 1009.60 1009.24 1008.92 1008.60 1008.20 1007.88
1013.12 1013.24 1013.32 1013.28 1013.24 1013.12 1013.00 1013.04 1012.96 1012.92 1012.68 1012.60 1012.56 1012.48 1012.36 1012.04 1011.88 1011.76 1011.48 1011.12 1010.76 1010.72 1010.76 1010.80 1010.40 1010.12 1010.20 1010.28 1010.36 1010.44 1010.48 1010.32 1010.20 1010.08 1010.00 1009.68 1009.44 1009.08 1008.72 1008.56 1008.20 1007.72
1012.88 1013.00 1013.00 1012.96 1012.92 1012.80 1012.76 1012.76 1012.68 1012.64 1012.48 1012.48 1012.40 1012.16 1012.08 1011.88 1011.80 1011.60 1011.48 1011.00 1010.56 1010.52 1010.40 1010.36 1010.28 1010.04 1009.92 1010.08 1010.16 1010.28 1010.40 1010.36 1010.12 1010.00 1009.80 1009.48 1009.24 1008.96 1008.60 1008.28 1008.04 1007.64
Wind_Speed
1 1 3 3 3 3 4 6 6 7 7 7 8 8 8 8 9 9 9 7 7 6 6 6 5 6 5 5 6 6 6 7 7 7 9 9 10 14 13 15 15 13
2 2 3 3 3 1 2 4 5 6 7 7 7 7 8 8 9 8 8 9 8 7 6 5 5 5 5 5 5 6 6 7 9 7 8 11 12 13 15 16 16 13
3 3 4 4 5 5 4 3 4 4 4 6 6 6 7 7 8 8 8 8 8 7 6 5 5 5 5 5 5 6 6 7 9 9 8 9 10 10 12 14 11 12
3 3 4 4 4 5 5 4 4 4 4 4 5 5 6 6 7 8 7 7 6 6 6 5 6 6 6 6 6 6 7 8 8 9 10 9 9 10 12 12 12 10
4 3 3 4 4 4 4 5 6 5 5 5 5 5 6 6 6 7 7 7 6 6 6 7 7 7 7 7 8 8 8 8 8 9 9 10 10 10 11 12 13 14
4 3 4 4 4 4 4 5 6 6 6 6 5 5 5 6 6 7 7 7 7 7 8 8 8 8 8 9 9 9 9 9 9 11 12 12 12 11 10 12 14 15
4 3 4 4 4 4 5 5 5 5 5 5 5 5 5 5 6 7 6 6 7 8 8 9 9 10 9 9 9 10 10 11 11 11 12 13 12 13 13 13 15 16
4 4 4 4 5 4 5 5 4 5 5 5 6 6 5 6 6 6 5 6 7 8 8 8 8 9 9 9 10 10 11 8 9 11 12 13 13 14 14 12 12 14
4 5 4 5 5 4 5 5 5 5 4 5 6 6 5 5 6 6 6 6 6 7 7 8 7 8 8 9 10 11 10 10 10 11 12 13 14 15 15 14 14 15
5 4 5 5 5 4 6 6 6 5 4 5 6 6 6 6 5 6 6 6 6 6 6 7 8 8 8 8 9 10 11 11 11 12 12 12 14 15 14 15 16 16
5 5 5 6 6 5 7 7 7 6 5 6 6 6 6 6 5 5 5 6 6 6 6 6 7 8 9 10 10 10 11 11 12 13 13 12 13 13 14 14 16 16
6 5 6 6 6 6 6 6 6 6 6 6 6 7 7 6 6 5 5 6 6 6 6 6 7 7 8 9 10 10 10 11 13 14 16 16 16 15 14 14 14 15
7 6 5 5 5 5 5 5 6 6 7 7 6 7 8 8 7 7 6 6 7 7 7 7 7 7 7 8 8 9 11 11 12 15 17 17 17 16 16 16 16 15
7 6 5 5 5 5 5 5 5 6 6 6 6 7 8 7 7 7 7 6 7 7 7 7 7 7 7 6 7 9 10 10 11 13 14 17 18 17 17 16 16 17
5 5 4 5 5 5 5 5 5 6 6 6 6 7 6 7 7 7 8 8 7 7 7 6 6 5 4 5 6 9 10 11 13 15 17 16 17 19 18 17 17 16
5 5 5 5 5 5 5 5 6 6 6 7 7 7 7 6 7 6 7 8 8 7 6 5 4 4 4 8 7 7 10 11 13 14 14 15 16 16 16 15 16 17
5 5 4 5 5 5 5 5 6 6 6 6 6 6 7 6 6 7 7 7 7 7 7 5 4 4 6 7 8 8 9 11 12 13 14 15 13 13 14 15 16 16
5 4 5 5 5 5 5 5 6 6 6 6 6 6 6 6 7 7 7 6 6 6 6 5 5 4 7 7 7 8 8 8 8 10 12 13 11 13 13 13 14 14
4 4 5 6 6 5 5 5 6 6 6 5 6 6 6 6 7 7 6 6 6 6 6 6 6 4 7 7 6 7 8 8 7 9 11 13 13 13 13 12 12 12
4 5 5 6 5 4 5 6 5 5 5 5 5 5 6 6 7 7 6 6 5 5 6 6 6 4 7 6 6 7 7 8 7 8 9 11 12 12 10 10 11 12
5 5 5 5 4 4 5 5 5 5 5 4 4 5 6 6 6 6 6 6 6 5 5 6 6 4 6 6 5 7 7 8 7 7 7 9 9 9 10 10 11 11
6 5 5 4 4 4 5 5 5 5 5 4 5 5 5 5 5 5 6 7 6 6 5 6 6 5 6 5 6 7 7 7 8 7 7 8 8 8 8 7 8 9
5 5 4 4 4 5 5 5 5 5 4 3 4 5 6 6 5 5 5 6 6 6 6 6 7 4 5 5 6 5 5 7 7 6 6 7 8 8 7 7 8 9
5 4 5 5 5 5 6 5 4 4 4 3 4 5 6 6 6 6 6 6 6 6 5 6 7 5 5 6 5 5 4 6 7 7 7 7 7 7 7 7 8 14
5 5 5 5 5 5 5 5 4 4 4 3 4 4 5 5 5 6 6 6 6 5 4 6 6 6 6 8 6 5 4 6 7 7 8 7 7 8 6 6 7 8
5 5 6 6 6 5 4 4 3 3 3 3 4 4 4 5 5 5 7 7 6 5 4 4 5 6 5 6 6 5 5 5 6 7 7 8 8 8 8 8 7 7
Wind_Direction
282 281 282 281 281 292 319 323 320 315 313 314 312 312 312 312 315 314 316 315 316 311 311 309 303 299 299 288 277 271 266 258 258 244 228 220 229 236 239 238 240 241
321 301 292 295 292 300 316 316 313 309 309 310 311 310 309 308 310 312 313 313 314 314 317 315 314 312 305 299 294 284 275 269 263 259 249 232 235 235 238 240 243 244
305 303 306 315 320 324 324 308 296 293 297 313 313 311 310 309 309 312 312 314 314 318 319 319 316 315 312 309 307 298 287 282 279 274 262 258 247 241 245 247 243 235
291 293 298 305 310 310 313 305 290 275 279 285 297 309 310 307 308 309 310 309 308 309 313 313 317 318 321 320 313 305 294 287 283 281 277 272 258 251 251 250 244 233
285 285 281 290 292 294 295 294 296 293 289 290 291 298 305 307 308 307 306 306 299 303 310 315 320 322 321 318 317 308 304 296 289 280 274 272 266 259 257 252 248 245
265 270 277 280 282 284 284 286 291 291 289 289 289 297 295 306 303 303 306 306 307 312 314 313 316 317 317 317 316 312 307 302 295 292 286 277 273 265 262 260 255 251
275 273 276 272 271 268 274 285 289 289 288 292 295 283 291 294 299 300 301 303 305 306 307 311 311 314 318 319 319 318 314 308 306 300 292 290 283 277 269 264 262 257
284 285 282 275 270 271 274 282 291 292 293 292 287 289 281 287 285 291 293 301 302 303 303 305 310 313 316 318 321 321 321 321 314 308 301 295 291 284 281 272 263 261
276 283 286 281 280 283 288 293 292 291 290 291 293 295 291 282 285 287 291 297 297 297 301 306 308 311 316 315 318 320 322 321 318 316 312 308 301 293 284 275 264 258
276 284 286 285 286 288 288 292 295 288 284 283 286 289 289 286 283 291 295 292 288 289 299 312 312 319 317 315 312 316 319 317 317 313 309 304 301 299 292 282 273 267
278 282 281 283 283 288 291 293 293 297 291 285 285 284 286 287 285 282 282 282 281 288 299 302 310 313 313 310 310 312 314 315 316 313 305 296 288 285 285 279 275 273
274 274 273 277 283 286 289 295 292 280 280 279 276 284 286 282 280 281 274 276 276 276 275 277 289 299 303 307 306 308 311 315 316 311 307 299 289 283 280 279 274 271
270 268 273 279 276 278 281 281 280 286 289 290 289 283 284 286 284 280 275 274 277 277 278 282 285 290 299 301 301 305 312 309 308 309 305 303 300 294 289 287 280 272
264 267 270 269 272 270 271 273 277 274 274 277 277 276 278 281 287 287 284 276 275 272 275 276 277 285 297 303 301 305 311 311 306 302 302 304 303 301 296 291 286 280
264 271 265 266 266 267 267 271 274 275 278 278 275 275 279 283 287 286 286 283 278 275 270 260 268 279 290 297 301 304 311 315 315 313 310 308 307 307 303 296 288 278
263 265 269 272 270 270 275 280 283 285 286 285 285 287 287 285 286 283 281 284 288 286 275 262 260 260 251 262 276 294 311 322 321 314 308 310 312 311 312 309 302 287
258 264 273 275 275 278 280 284 288 290 287 286 289 289 289 288 283 283 285 286 286 285 282 272 261 263 247 264 283 289 305 325 320 314 313 315 314 316 320 320 316 299
258 270 276 277 276 277 285 291 292 290 288 289 292 293 296 293 286 285 288 289 287 283 279 273 270 246 245 267 290 296 300 315 309 314 321 322 320 324 323 321 322 323
253 264 272 277 277 282 289 293 292 289 290 293 295 298 293 288 291 292 294 295 287 286 282 276 270 230 252 270 282 287 304 315 303 310 323 325 326 329 327 324 325 329
255 257 265 272 279 284 287 289 287 287 291 288 287 287 286 290 295 297 298 296 293 289 287 281 276 232 241 262 284 294 302 314 308 315 314 314 318 326 318 322 329 337
249 250 258 269 275 277 282 282 283 287 287 290 294 295 296 297 299 302 299 296 296 294 292 286 274 233 251 269 273 273 292 298 306 304 302 302 307 308 318 320 336 336
246 250 254 260 268 273 274 280 283 283 291 303 302 297 293 287 280 273 281 289 294 295 297 293 295 208 240 258 272 280 298 307 312 304 295 300 300 308 310 319 319 314
243 247 253 256 259 267 273 279 286 296 302 310 301 300 299 294 292 290 288 286 289 293 295 299 303 265 215 235 250 265 296 306 301 294 292 289 300 302 310 311 308 313
242 239 245 249 250 259 270 279 289 287 293 294 293 301 296 301 302 296 291 288 286 289 301 306 303 285 243 251 254 253 273 296 300 294 289 288 293 298 301 304 305 316
245 233 238 245 249 258 261 275 287 293 293 285 283 279 286 293 297 295 296 292 293 294 275 277 299 294 257 254 248 252 275 296 296 292 291 290 297 303 296 293 302 308
240 234 237 240 246 252 251 258 269 274 281 294 288 286 302 308 299 296 294 299 303 292 302 295 302 303 286 260 260 269 259 288 296 292 294 299 305 308 310 307 306 310